www.pogodaiklimat.ru

Погода и климат >> Архив погоды >> Китай >> город Пекин >> Пекин


АРХИВ ПОГОДЫ в Пекине

Время (UTC), дата Ветер
(напр.,м/с)
 
Видим.   Явления Облачность Т
(С)
Тd
(С)
f
(%)
Тe
(С)
Тes
(С)
Комфортность P
(гПа)
Po
(гПа)
Тmin
(С)
Tmax
(С)
R
(мм)
R24
(мм)
S
(см)
12 12.01 Ю 1 600 м мгла 9/9
[]
-1.9 -6.5 71 -4 -4 по сезону 1025.3 1021.1
15 12.01 Ю 1 500 м мгла н/о -4.6 -7.0 83 -7 -7 по сезону 1026.7 1027.0
18 12.01 штиль 0 300 м туман ?/? -6.7 -8.1 90 -8 -8 по сезону 1027.4 1023.2 +4.6
21 12.01 штиль 0 600 м туман н/о -9.8 -11.4 88 -10 -10 по сезону 1027.8 1028.0
00 13.01 ЮЗ 1 700 м мгла ясно -8.6 -10.4 87 -11 -11 по сезону 1028.6 1024.4
03 13.01 С 3 23 км 3/3
[]
+4.6 -16.4 20 +2 +5 тепло 1029.3 1029.0
06 13.01 С 3 30 км 1/1
[]
+8.5 -18.4 13 +7 +10 тепло 1027.2 1023.1 -10.4
09 13.01 З 2 2900 м мгла 5/5
[]
+5.3 -11.7 28 +4 +4 тепло 1027.2 1027.0
12 13.01 Ю 2 1800 м мгла 3/3
[]
+0.2 -9.3 49 -3 -3 по сезону 1028.5 1024.3
15 13.01 Ю 1 1500 м мгла н/о -2.4 -8.9 61 -4 -4 по сезону 1029.2 1029.0
18 13.01 ЮЗ 1 1200 м мгла н/о -5.4 -9.3 74 -8 -8 по сезону 1029.1 1025.0 +9.0
21 13.01 Ю 1 1100 м мгла н/о -7.1 -10.1 79 -9 -9 по сезону 1027.0 1027.0
00 14.01 В 1 1100 м мгла 9/9
[]
-7.2 -10.1 80 -10 -10 по сезону 1028.1 1023.9
03 14.01 В 1 1100 м мгла 9/9
[]
+0.3 -6.8 59 -1 -1 тепло 1027.8 1028.0
06 14.01 ЮЗ 3 1400 м мгла 9/9
[]
+4.0 -9.0 38 +1 +1 по сезону 1024.6 1020.5 -7.6
09 14.01 ЮЗ 2 1600 м мгла 9/9
[]
+3.0 -9.6 39 +1 +1 тепло 1024.9 1025.0
12 14.01 СЗ 4 13 км 9/9
[]
+4.8 -18.9 16 +2 +2 тепло 1028.5 1024.3
15 14.01 С 8 16 км н/о -2.1 -24.6 16 -9 -9 по сезону 1034.8 1035.0
18 14.01 С 5 18 км н/о -5.4 -26.6 17 -12 -12 прохладно 1036.9 1032.7 +5.2
21 14.01 С 5 30 км н/о -7.2 -28.1 17 -14 -14 прохладно 1039.1 1039.0
00 15.01 С 7 30 км 1/1
[]
-7.8 -28.6 17 -16 -16 холодно 1040.8 1036.6
03 15.01 С 5 28 км 3/3
[]
-5.5 -29.6 13 -12 -10 холодно 1041.2 1041.0
06 15.01 С 5 30 км 1/1
[]
-2.8 -30.2 10 -8 -6 холодно 1037.0 1032.8 -7.9
09 15.01 С 2 30 км 1/1
[]
-2.5 -30.0 10 -5 -5 по сезону 1036.2 1036.0
12 15.01 З 2 30 км ясно -4.8 -28.3 14 -8 -8 по сезону 1036.7 1032.4
15 15.01 ЮЗ 3 19 км н/о -5.6 -26.8 17 -10 -10 по сезону 1035.6 1036.0
18 15.01 Ю 1 10 км н/о -7.3 -25.4 22 -9 -9 по сезону 1033.4 1029.2 -1.6
21 15.01 В 1 8000 м н/о -10.3 -24.2 31 -12 -12 по сезону 1030.8 1031.0
00 16.01 З 1 4900 м мгла 4/4
[]
-11.2 -22.7 38 -13 -13 прохладно 1030.7 1026.4
03 16.01 ЮВ 1 9000 м 3/3
[]
-1.5 -23.4 17 -2 +2 по сезону 1030.3 1030.0
06 16.01 Ю 2 15 км 3/3
[]
+1.8 -27.8 9 0 +3 по сезону 1026.6 1022.4 -11.7
09 16.01 ЮЗ 2 9000 м 3/3
[]
+0.6 -26.5 11 -1 -1 по сезону 1025.8 1026.0
12 16.01 Ю 1 9000 м 3/3
[]
-2.9 -24.6 17 -4 -4 по сезону 1025.8 1021.6
15 16.01 С 1 7000 м н/о -6.6 -22.5 27 -8 -8 по сезону 1026.4 1026.0
18 16.01 З 1 6000 м мгла н/о -9.0 -19.6 42 -11 -11 по сезону 1025.7 1021.5 +2.3
21 16.01 ЮЗ 1 н/о мгла н/о -10.3 -19.7 46 -12 -12 по сезону 1025.1 1025.0
00 17.01 В 2 10 км ясно -7.5 -21.7 31 -11 -11 по сезону 1026.2 1022.0
03 17.01 С 2 25 км ясно +3.2 -28.0 8 +2 +6 тепло 1026.9 1027.0
06 17.01 Ю 3 28 км 8/8
[]
+6.8 -30.3 5 +5 +6 тепло 1024.8 1020.7 -10.5
09 17.01 ЮЗ 2 14 км 6/6
[]
+4.5 -25.7 9 +3 +3 тепло 1025.0 1025.0
12 17.01 Ю 1 9000 м 8/8
[]
-1.5 -22.8 18 -2 -2 по сезону 1025.7 1021.5
15 17.01 Ю 1 6000 м мгла н/о -3.8 -21.4 24 -5 -5 по сезону 1025.7 1026.0
18 17.01 В 1 4800 м мгла н/о -5.2 -19.3 32 -7 -7 по сезону 1025.6 1021.5 +7.0
21 17.01 С 1 н/о мгла н/о -7.1 -18.1 41 -9 -9 по сезону 1025.1 1025.0
00 18.01 СВ 1 6000 м мгла 9/9
[]
-5.5 -18.5 35 -7 -7 по сезону 1025.8 1021.6
03 18.01 В 2 7000 м мгла 9/9
[]
+2.1 -20.4 17 0 +1 тепло 1026.3 1026.0
06 18.01 ЮЗ 1 10 км 9/9
[]
+5.9 -20.4 13 +6 +7 тепло 1023.3 1019.2 -7.5
09 18.01 З 2 8000 м 9/9
[]
+4.4 -19.2 16 +3 +3 тепло 1023.2 1023.0
12 18.01 СВ 1 н/о мгла 3/3
[]
-2.7 -16.8 33 -4 -4 по сезону 1024.6 1020.4
15 18.01 С 3 н/о мгла н/о +0.6 -18.2 23 -3 -3 по сезону 1026.5 1027.0
18 18.01 СВ 3 30 км н/о +0.7 -21.6 17 -2 -2 тепло 1026.9 1022.8 +6.0
21 18.01 СВ 4 30 км н/о -0.3 -20.6 20 -5 -5 по сезону 1027.1 1027.0
00 19.01 СВ 3 30 км 9/9
[]
-1.1 -19.6 23 -5 -5 по сезону 1028.7 1024.5
03 19.01 С 4 30 км 9/9
[]
+2.2 -18.5 20 -1 -1 по сезону 1029.1 1029.0
06 19.01 С 4 30 км 9/9
[]
+3.9 -18.3 18 +1 +1 по сезону 1026.7 1022.6 -4.5
09 19.01 СВ 2 30 км 9/9
[]
+3.7 -17.8 19 +2 +2 тепло 1026.8 1027.0

 

Местоположение метеостанции Пекин (город Пекин, Китай): широта 39.93 долгота 116.28 высота над уровнем моря 55 м.

В архиве по умолчанию представлена погода в Пекине за последнюю неделю. Архивные данные за месяц целиком и за предыдущие месяцы, начиная с января 2011 года, Вы можете получить, выбрав интересующий диапазон дат из раскрывающегося списка и нажав кнопку "Ввод!".


*Определитесь, кто Вы:
робот инопланетянин человек

Внимание! Время в таблицах - всемирное. Для получения местного времени необходимо прибавить поправку, которая равна 8 ч.

Смотрите также архив погоды в соседних городах и на ближайших метеорологических станциях:

Погода в Хуайлае (Хэбэй, Китай) (84 км)
Погода в Тяньцзине (город Тяньцзинь, Китай) (119 км)
Погода в Баодине (Хэбэй, Китай) (135 км)
Погода в Фэннине (Хэбэй, Китай) (146 км)
Погода в Юйсяне (Шаньси, Китай) (147 км)
Погода в Чжанцзякоу (Хэбэй, Китай) (152 км)
Погода в Таншане (Хэбэй, Китай) (162 км)
Погода в Чэндэ (Хэбэй, Китай) (183 км)
Погода в Баотоу (Внутренняя Монголия, Китай) (207 км)
Погода в Лаотине (Хэбэй, Китай) (231 км)

Пояснения к столбцам:

Ветер - указаны скорость ветра в м/с - средняя за 10 мин, порывы в срок и между сроками (в фигурных скобках) и направление, откуда дует ветер: С - северный, СВ - северо-восточный, В - восточный, ЮВ - юго-восточный, Ю - южный, ЮЗ - юго-западный, З - западный, СЗ - северо-западный.
Видимость - горизонтальная дальность видимости в метрах или километрах. При видимости от 1 до 10 км при отсутствии осадков обычно наблюдается дымка, при ухудшении видимости до 1 км и менее - туман. В сухую погоду видимость может ухудшаться дымом, пылью или мглою.
Явления - указаны атмосферные явления, наблюдавшиеся в срок или в последний час перед сроком; фигурными скобками обозначены явления, наблюдавшиеся между сроками (за 1-3 часа до срока); квадратными скобками обозначены град или гололедные отложения с указанием их диаметра в мм.
Облачность - указаны через наклонную черту общая и нижняя облачность в баллах и высота нижней границы облаков в метрах; квадратными скобками обозначены формы облаков: Ci - перистые, Cs - перисто-слоистые, Cc - перисто-кучевые, Ac - высококучевые, As - высокослоистые, Sc - слоисто-кучевые, Ns - слоисто-дождевые, Cu - кучевые, Cb - кучево-дождевые. Подробнее классификацию облаков см. в Атласе облаков (PDF).
T - Температура воздуха - температура, измеренная на высоте 2 м над землей.
Td - Температура точки росы - температура, при понижении до которой содержащийся в воздухе водяной пар достигнет насыщения.
f - Относительная влажность воздуха - влажноcть воздуха, измеренная на высоте 2 м над землей.
Te - Эффективная температура - температура, которую ощущает одетый по сезону человек в тени. Характеристика душности погоды. При расчете учитывается влияние влажности воздуха и скорости ветра на теплоощущения человека.
Tes - Эффективная температура на солнце - температура, которую ощущает человек, с поправкой на солнечный нагрев. Характеристика знойности погоды. Зависит от высоты солнца над горизонтом, облачности и скорости ветра. Ночью, в пасмурную погоду, а также при ветре 12 м/с и более поправка равна нулю.
P - Атмосферное давление - приведенное к уровню моря атмосферное давление.
Po - Атмосферное давление - измеренное на уровне метеостанции атмосферное давление.
Tmin - Минимальная температура - минимум температуры воздуха на высоте 2 м над землей.
Tmax - Максимальная температура - максимум температуры воздуха на высоте 2 м над землей.
R - Количество осадков - Количество выпавших осадков за период времени, мм. При наведении курсора мыши на число - период времени, за который выпало указанное количество осадков.
R24 - Количество осадков - Количество выпавших осадков за 24 часа, мм.
S - Снежный покров - Высота снежного покрова, см. При наведении курсора мыши на число - состояние снежного покрова и степень покрытия местности в баллах.